TimeEST,TemperatureF,Dew PointF,Humidity,Sea Level PressureIn,VisibilityMPH,Wind Direction,Wind SpeedMPH,Gust SpeedMPH,PrecipitationIn,Events,Conditions,WindDirDegrees,DateUTC
12:53 AM,34.0,32.0,92,30.17,10.0,Calm,Calm,-,N/A,,Clear,0,2012-11-09 05:53:00
1:53 AM,32.0,30.9,96,30.18,8.0,Calm,Calm,-,N/A,,Clear,0,2012-11-09 06:53:00
2:53 AM,32.0,30.9,96,30.20,8.0,Calm,Calm,-,N/A,,Clear,0,2012-11-09 07:53:00
3:53 AM,30.9,28.9,92,30.20,2.0,Calm,Calm,-,N/A,,Clear,0,2012-11-09 08:53:00
4:03 AM,30.2,28.4,93,30.20,6.0,Calm,Calm,-,N/A,,Clear,0,2012-11-09 09:03:00
4:53 AM,30.0,28.9,96,30.22,3.0,Calm,Calm,-,N/A,,Clear,0,2012-11-09 09:53:00
5:53 AM,30.0,28.9,96,30.24,8.0,Calm,Calm,-,N/A,,Clear,0,2012-11-09 10:53:00
6:51 AM,30.2,28.4,93,30.24,1.8,Calm,Calm,-,N/A,,Clear,0,2012-11-09 11:51:00
6:53 AM,30.0,28.9,96,30.25,6.0,Calm,Calm,-,N/A,,Clear,0,2012-11-09 11:53:00
7:53 AM,33.1,32.0,96,30.27,6.0,Calm,Calm,-,N/A,,Clear,0,2012-11-09 12:53:00
8:53 AM,44.1,39.0,82,30.29,8.0,Calm,Calm,-,N/A,,Clear,0,2012-11-09 13:53:00
9:53 AM,53.1,37.9,57,30.30,10.0,Calm,Calm,-,N/A,,Clear,0,2012-11-09 14:53:00
10:53 AM,60.1,33.1,36,30.30,10.0,Variable,5.8,-,N/A,,Clear,0,2012-11-09 15:53:00
11:53 AM,64.9,33.1,31,30.28,10.0,South,4.6,-,N/A,,Clear,190,2012-11-09 16:53:00
12:53 PM,68.0,32.0,26,30.25,10.0,SW,5.8,-,N/A,,Clear,220,2012-11-09 17:53:00
1:53 PM,69.1,32.0,25,30.22,10.0,Variable,3.5,-,N/A,,Clear,0,2012-11-09 18:53:00
2:53 PM,70.0,30.9,24,30.21,10.0,Calm,Calm,-,N/A,,Clear,0,2012-11-09 19:53:00
3:53 PM,70.0,30.9,24,30.20,10.0,SSW,4.6,-,N/A,,Clear,200,2012-11-09 20:53:00
4:53 PM,66.0,37.0,34,30.20,10.0,SSW,3.5,-,N/A,,Clear,210,2012-11-09 21:53:00
5:53 PM,54.0,43.0,66,30.22,10.0,Calm,Calm,-,N/A,,Clear,0,2012-11-09 22:53:00
6:53 PM,48.0,39.9,74,30.23,10.0,Calm,Calm,-,N/A,,Clear,0,2012-11-09 23:53:00
7:53 PM,45.0,37.9,76,30.24,10.0,Calm,Calm,-,N/A,,Clear,0,2012-11-10 00:53:00
8:53 PM,43.0,37.9,82,30.25,10.0,Calm,Calm,-,N/A,,Clear,0,2012-11-10 01:53:00
9:53 PM,39.9,37.0,89,30.27,10.0,Calm,Calm,-,N/A,,Clear,0,2012-11-10 02:53:00
10:53 PM,39.0,36.0,89,30.28,10.0,Calm,Calm,-,N/A,,Clear,0,2012-11-10 03:53:00
11:53 PM,35.1,34.0,96,30.27,7.0,Calm,Calm,-,N/A,,Clear,0,2012-11-10 04:53:00